Location: *
(2.5500°S, 65.9667°W)
Time: 11:12:13
(UTC+00:00)

NOSS 0 Rocket - Pass Details

Date: 26 October 2021
Orbit: 938 x 952 km, 70.0° (Epoch: 29 November)

Event Time Altitude Azimuth Distance (km) Brightness Sun altitude
Rises 23:03:37 0° 197° (SSW) 3,624 7.4 -13.0°
Reaches altitude 10° 23:06:09 10° 196° (SSW) 2,675 6.7 -13.6°
Maximum altitude 23:12:23 90° 293° (WNW) 952 3.9 -15.1°
Drops below altitude 10° 23:18:34 10° 16° (NNE) 2,655 6.0 -16.6°
Enters shadow 23:20:50 - 16° (NNE) 3,502 6.6 -17.2°
